Rome Ciampino, Italy

6:26 AM CEST on May 27, 2018 (GMT +0200)
Ciampino

Weather History for LIRA - October, 2011

Change the Weather History Date:

Sunday, October 23, 2011

  Actual Average Record
Temperature  
Mean Temperature 56 °F -  
Max Temperature 68 °F 63 °F 77 °F (2013)
Min Temperature 44 °F 46 °F 41 °F (2007)
Degree Days  
Heating Degree Days 9    
Growing Degree Days 6 (Base 50)    
Moisture  
Dew Point 47 °F    
Average Humidity 76    
Maximum Humidity 100    
Minimum Humidity 46    
Precipitation  
Precipitation 0.00 in 0.16 in - ()
Sea Level Pressure  
Sea Level Pressure 30.05 in    
Wind  
Wind Speed 3 mph ()    
Max Wind Speed 6 mph    
Max Gust Speed -    
Visibility 6.2 miles    
Events      
Averages and records for this station are not official NWS values.
T = Trace of Precipitation, MM = Missing Value Source: Averaged Metar Reports

Daily Weather History Graph

Daily Weather History Graph

Search for Another Location

Airport or City:

Astronomy

Oct. 23, 2011 Rise Set
Actual Time 7:30 AM CEST 6:17 PM CEST
Civil Twilight 7:02 AM CEST 6:45 PM CEST
Nautical Twilight 6:29 AM CEST 7:17 PM CEST
Astronomical Twilight 5:57 AM CEST 7:50 PM CEST
Moon 3:14 AM CEST (10/23) 4:01 PM CEST (10/23)
Length of Visible Light 11h 43m
Length of Day
10h 46m
Waning Crescent, 17% of the Moon is Illuminated
Oct 23
Waning Crescent
Oct 26
New
Nov 2
First Quarter
Nov 10
Full
Nov 18
Last Quarter

Hourly Weather History & Observations

Time (CEST) Temp. Windchill Dew Point Humidity Pressure Visibility Wind Dir Wind Speed Gust Speed Precip Events Conditions
12:15 AM 50.0 °F - 46.4 °F 87% 30.12 in - NNE 3.5 mph - N/A   Clear
12:45 AM 48.2 °F - 46.4 °F 93% 30.12 in 6.2 mi East 3.5 mph - N/A   Partly Cloudy
1:15 AM 48.2 °F - 44.6 °F 87% 30.12 in 6.2 mi NE 3.5 mph - N/A   Partly Cloudy
1:45 AM 48.2 °F - 44.6 °F 87% 30.12 in 6.2 mi NNE 3.5 mph - N/A   Scattered Clouds
2:15 AM 48.2 °F - 44.6 °F 87% 30.09 in 6.2 mi NNE 3.5 mph - N/A   Partly Cloudy
2:45 AM 48.2 °F - 46.4 °F 93% 30.09 in 6.2 mi North 3.5 mph - N/A   Scattered Clouds
3:15 AM 46.4 °F 45.2 °F 46.4 °F 100% 30.09 in 6.2 mi NNE 3.5 mph - N/A   Partly Cloudy
3:45 AM 46.4 °F 45.2 °F 44.6 °F 93% 30.09 in 6.2 mi NE 3.5 mph - N/A   Partly Cloudy
4:15 AM 46.4 °F 44.3 °F 44.6 °F 93% 30.09 in 6.2 mi ENE 4.6 mph - N/A   Partly Cloudy
4:45 AM 46.4 °F 45.2 °F 44.6 °F 93% 30.06 in 6.2 mi North 3.5 mph - N/A   Partly Cloudy
5:15 AM 46.4 °F - 44.6 °F 93% 30.06 in - North 2.3 mph - N/A   Clear
5:45 AM 46.4 °F 45.2 °F 44.6 °F 93% 30.06 in 6.2 mi NNE 3.5 mph - N/A   Partly Cloudy
6:15 AM 46.4 °F 44.3 °F 44.6 °F 93% 30.06 in 6.2 mi NE 4.6 mph - N/A   Partly Cloudy
6:45 AM 44.6 °F 41.4 °F 44.6 °F 100% 30.06 in 6.2 mi NE 5.8 mph - N/A   Partly Cloudy
7:15 AM 44.6 °F 43.1 °F 42.8 °F 93% 30.06 in 6.2 mi NNE 3.5 mph - N/A   Scattered Clouds
7:45 AM 44.6 °F - 44.6 °F 100% 30.06 in 6.2 mi NNE 2.3 mph - N/A   Mostly Cloudy
8:15 AM 46.4 °F 45.2 °F 44.6 °F 93% 30.06 in 6.2 mi NNE 3.5 mph - N/A   Scattered Clouds
8:45 AM 48.2 °F - 46.4 °F 93% 30.06 in 6.2 mi NNE 4.6 mph - N/A   Scattered Clouds
9:15 AM 50.0 °F - 46.4 °F 87% 30.09 in 6.2 mi NNE 2.3 mph - N/A   Scattered Clouds
9:45 AM 51.8 °F - 46.4 °F 82% 30.09 in 6.2 mi NNE 3.5 mph - N/A   Scattered Clouds
10:15 AM 53.6 °F - 46.4 °F 77% 30.09 in 6.2 mi North 3.5 mph - N/A   Mostly Cloudy
10:45 AM 55.4 °F - 48.2 °F 77% 30.06 in 6.2 mi NNE 4.6 mph - N/A   Mostly Cloudy
11:15 AM 57.2 °F - 48.2 °F 72% 30.06 in 6.2 mi NNE 4.6 mph - N/A   Scattered Clouds
11:45 AM 59.0 °F - 48.2 °F 67% 30.06 in 6.2 mi North 4.6 mph - N/A   Partly Cloudy
12:15 PM 60.8 °F - 48.2 °F 63% 30.06 in 6.2 mi North 4.6 mph - N/A   Partly Cloudy
12:45 PM 62.6 °F - 48.2 °F 59% 30.06 in 6.2 mi NNE 4.6 mph - N/A   Partly Cloudy
1:15 PM 64.4 °F - 48.2 °F 56% 30.06 in 6.2 mi North 3.5 mph - N/A   Partly Cloudy
1:45 PM 66.2 °F - 46.4 °F 49% 30.04 in 6.2 mi NW 4.6 mph - N/A   Partly Cloudy
2:15 PM 66.2 °F - 46.4 °F 49% 30.04 in 6.2 mi West 2.3 mph - N/A   Scattered Clouds
2:45 PM 68.0 °F - 46.4 °F 46% 30.04 in 6.2 mi NW 3.5 mph - N/A   Scattered Clouds
3:15 PM 68.0 °F - 48.2 °F 49% 30.01 in 6.2 mi NW 2.3 mph - N/A   Scattered Clouds
3:45 PM 68.0 °F - 46.4 °F 46% 30.01 in 6.2 mi WNW 4.6 mph - N/A   Mostly Cloudy
4:15 PM 68.0 °F - 46.4 °F 46% 30.01 in 6.2 mi SW 4.6 mph - N/A   Mostly Cloudy
4:45 PM 68.0 °F - 46.4 °F 46% 30.01 in 6.2 mi SW 4.6 mph - N/A   Mostly Cloudy
5:15 PM 66.2 °F - 44.6 °F 46% 30.01 in 6.2 mi West 3.5 mph - N/A   Mostly Cloudy
5:45 PM 64.4 °F - 48.2 °F 56% 30.01 in 6.2 mi West 2.3 mph - N/A   Mostly Cloudy
6:15 PM 64.4 °F - 50.0 °F 59% 30.01 in 6.2 mi SW 2.3 mph - N/A   Mostly Cloudy
6:45 PM 62.6 °F - 51.8 °F 68% 30.01 in 6.2 mi SW 2.3 mph - N/A   Mostly Cloudy
7:15 PM 60.8 °F - 50.0 °F 68% 30.01 in 6.2 mi North 1.2 mph - N/A   Scattered Clouds
7:45 PM 60.8 °F - 48.2 °F 63% 30.01 in 6.2 mi ENE 1.2 mph - N/A   Scattered Clouds
8:15 PM 59.0 °F - 48.2 °F 67% 30.01 in 6.2 mi Calm Calm - N/A   Scattered Clouds
8:45 PM 59.0 °F - 51.8 °F 77% 30.01 in 6.2 mi Calm Calm - N/A   Mostly Cloudy
9:15 PM 57.2 °F - 51.8 °F 82% 30.01 in 6.2 mi ESE 2.3 mph - N/A   Mostly Cloudy
9:45 PM 57.2 °F - 51.8 °F 82% 30.01 in 6.2 mi Calm Calm - N/A   Mostly Cloudy
10:15 PM 57.2 °F - 51.8 °F 82% 30.01 in 6.2 mi East 1.2 mph - N/A   Scattered Clouds
10:45 PM 57.2 °F - 50.0 °F 77% 30.01 in 6.2 mi NE 2.3 mph - N/A   Scattered Clouds
11:15 PM 55.4 °F - 51.8 °F 88% 30.01 in 6.2 mi Calm Calm - N/A   Scattered Clouds
11:45 PM 55.4 °F - 50.0 °F 82% 30.01 in 6.2 mi NE 2.3 mph - N/A   Scattered Clouds